Regional Weather Roundup
Issued by NWS

Home | Current Version | Previous Version | Text Only | Print | Product List | Glossary Off
Versions: 1 2 3 4 5 6 7 8 9 10 11 12 13 14 15 16 17 18 19 20 21 22 23 24 25 26 27

000
ASUS45 KCYS 190610
RWRWY

WYOMING REGIONAL WEATHER ROUNDUP
NATIONAL WEATHER SERVICE CHEYENNE WY
1200 AM MDT THU OCT 19 2017

NOTE:  "FAIR" INDICATES FEW OR NO CLOUDS BELOW 12,000 FEET
WITH NO SIGNIFICANT WEATHER AND/OR OBSTRUCTIONS TO VISIBILITY.

WYZ001-190700-
YELLOWSTONE NATIONAL PARK

CITY           SKY/WX    TMP DP  RH WIND       PRES   REMARKS
LK YELLOWSTONE   N/A     29  24  82 CALM      30.18S
6HR MIN TEMP:  29; 6HR MAX TEMP:  46;

W YELLOWSTONE  NOT AVBL

$$
WYZ002>013-054>058-071-098>099-190700-
NORTHERN WYOMING

CITY           SKY/WX    TMP DP  RH WIND       PRES   REMARKS
JACKSON        FAIR      39  22  50 SE6       30.16S WCI  35
CODY           FAIR      61  20  20 W12G21    29.99S
GREYBULL       FAIR      48  23  37 SE3       29.96R
6HR MIN TEMP:  46; 6HR MAX TEMP:  67;

WORLAND        FAIR      43  25  49 VRB3      29.96S
6HR MIN TEMP:  42; 6HR MAX TEMP:  64;

SHERIDAN       FAIR      46  28  49 VRB3      29.90S
6HR MIN TEMP:  40; 6HR MAX TEMP:  62;

BUFFALO        FAIR      57  10  15 W6        29.96R
6HR MIN TEMP:  52; 6HR MAX TEMP:  64;

GILLETTE       FAIR      54  17  23 S13       29.92F
6HR MIN TEMP:  48; 6HR MAX TEMP:  56;

HULETT         FAIR      57  23  26 SW6       29.94S
NEWCASTLE      FAIR      54  23  30 SE13      30.00S

$$
WYZ014>020-022>026-101>103-190700-
CENTRAL WYOMING

CITY           SKY/WX    TMP DP  RH WIND       PRES   REMARKS
BIG PINEY      FAIR      29  15  56 CALM      30.20F
6HR MIN TEMP:  27; 6HR MAX TEMP:  59;

PINEDALE       FAIR      28  21  74 W8        30.21F WCI  20
DUBOIS         FAIR      37  19  48 NW16      30.15S WCI  28
LANDER         FAIR      48  21  34 W6        30.04F
6HR MIN TEMP:  46; 6HR MAX TEMP:  66;

RIVERTON       FAIR      47  22  37 SW6       30.06S
6HR MIN TEMP:  45; 6HR MAX TEMP:  67;

CASPER         FAIR      49  17  28 SW14      30.04F
6HR MIN TEMP:  46; 6HR MAX TEMP:  65;

DOUGLAS        FAIR      44  19  36 CALM      30.04S
6HR MIN TEMP:  44; 6HR MAX TEMP:  61;


$$
WYZ021-027>030-104>119-190700-
SOUTHERN WYOMING

CITY           SKY/WX    TMP DP  RH WIND       PRES   REMARKS
EVANSTON       FAIR      44  13  28 SE8       30.20F
6HR MIN TEMP:  37; 6HR MAX TEMP:  62;

KEMMERER       FAIR      36  18  48 N7        30.20F WCI  30
FORT BRIDGER   FAIR      47   5  18 SW6       30.22F
ROCK SPRINGS   FAIR      42   9  25 SE6       30.18S
6HR MIN TEMP:  41; 6HR MAX TEMP:  61;

DIXON          FAIR      40  11  30 CALM      30.22F
RAWLINS        FAIR      37  12  35 CALM      30.18S
6HR MIN TEMP:  34; 6HR MAX TEMP:  61;

SARATOGA       FAIR      36  12  38 NW3       30.20S
LARAMIE        FAIR      37  17  44 S10       30.20F WCI  30
6HR MIN TEMP:  33; 6HR MAX TEMP:  56;

CHEYENNE       FAIR      46  20  35 W3        30.16F
6HR MIN TEMP:  44; 6HR MAX TEMP:  66;

TORRINGTON     FAIR      46  27  47 E10       30.07F
6HR MIN TEMP:  42; 6HR MAX TEMP:  64;

PINE BLUFFS    FAIR      32  25  74 MISG      30.15R

$$




USA.gov is the U.S. government's official web portal to all federal, state and local government web resources and services.